Tracking 31027 objects as of 19-Jul-2025
HD Live streaming from Space Station
objects crossing your sky now

STARLINK-31126

Track STARLINK-31126 now!
10-day predictions
STARLINK-31126 is classified as:


NORAD ID: 58675
Int'l Code: 2023-211J
Perigee: 489.3 km
Apogee: 491.0 km
Inclination: 43.0 °
Period: 94.3 minutes
Semi major axis: 6861 km
RCS: Unknown
Launch date: December 29, 2023
Source: United States (US)
Launch site: AIR FORCE EASTERN TEST RANGE (AFETR)
Your satellite tracking list
STARLINK-31009
Track 1 satellite(s)




NASA's NSSDC Master Catalog

Two Line Element Set (TLE):
1 58675U 23211J   25199.69619500  .00004346  00000-0  16724-3 0  9992
2 58675  43.0007 326.2829 0001245 270.0228  90.0481 15.27600430 87850
Source of the keplerian elements: AFSPC